Regional Weather Roundup
Issued by NWS Nashville, TN

Home | Current Version | Previous Version | Text Only | Print | Product List | Glossary On
Versions: 1 2 3 4 5 6 7 8 9 10 11 12 13 14 15 16 17 18 19 20 21 22 23 24 25 26 27 28 29 30 31 32 33 34 35 36 37 38 39 40 41 42 43 44 45 46 47 48 49 50
000
ASUS44 KOHX 022310
RWROHX
MIDDLE TENNESSEE HOURLY WEATHER ROUNDUP
NATIONAL WEATHER SERVICE NASHVILLE TN
500 PM CST FRI DEC 02 2016

NOTE: "FAIR" INDICATES FEW OR NO CLOUDS BELOW 12,000 FEET WITH
NO SIGNIFICANT WEATHER AND/OR OBSTRUCTIONS TO VISIBILITY.

* THESE REPORTS ARE NOT UNDER NWS QUALITY CONTROL AND MAY NOT
  REPORT WEATHER SUCH AS PRECIPITATION AND FOG.


TNZ005>011-023>034-057-059-062>066-078-080-030000
...NORTHERN MIDDLE TENNESSEE...

CITY           SKY/WX    TMP DP  RH WIND       PRES   REMARKS
CLARKSVILLE    CLEAR     45  29  53 N3        30.28R
CROSSVILLE     CLEAR     45  27  49 W5        30.25R
LEBANON        CLEAR     48  29  48 NW5       30.25R
NASHVILLE      PTCLDY    51  28  41 N8        30.27R
PORTLAND       CLEAR     48  30  49 CALM      30.27S
SMYRNA         CLEAR     47  32  56 N3        30.28R
SPRINGFIELD    CLEAR     48  30  49 N5        30.27S
WEST NASHVILLE CLEAR     48  28  46 N5        30.27S
$$
TNZ056-058-060-061-075>077-079-093>097-030000
...SOUTHERN MIDDLE TENNESSEE...

CITY           SKY/WX    TMP DP  RH WIND       PRES   REMARKS
COLUMBIA       CLEAR     55  28  35 CALM      30.25R
FAYETTEVILLE   CLEAR     52  32  46 CALM      30.25S
MCMINNVILLE    CLEAR     52  27  37 NW5       30.26R
SHELBYVILLE    CLEAR     54  34  47 CALM      30.26S
TULLAHOMA      CLEAR     46  27  46 CALM      30.26S
WINCHESTER     CLEAR     52  30  43 CALM      30.26R
$$


...KEY TO REMARKS...
VSB - VISIBILITY IN MILES
WCI - WIND CHILL INDEX
HX  - HEAT INDEX




USA.gov is the U.S. government's official web portal to all federal, state and local government web resources and services.